This is the latest recevied weather packets stored in our database for station/object K1RFS. If no packets are shown the sender has not sent any weather packets the latest 10 day(s).
| Time | Temp. | Humidity | Pressure | Rain* | Wind** | Luminosity | Snow |
|---|---|---|---|---|---|---|---|
| 1787896418 | 22.78° C | 51% | 1006.8 hPa | 0 mm | - | 0 W/m² | - |
| 1787896114 | 22.78° C | 51% | 1007 hPa | 0 mm | - | 0 W/m² | - |
| 1787895804 | 22.78° C | 51% | 1007.2 hPa | 0 mm | - | 0 W/m² | - |
| 1787895498 | 22.78° C | 52% | 1006.9 hPa | 0 mm | - | 0 W/m² | - |
| 1787895194 | 22.78° C | 53% | 1006.6 hPa | 0 mm | - | 0 W/m² | - |
| 1787894889 | 22.78° C | 53% | 1006.5 hPa | 0 mm | - | 0 W/m² | - |
| 1787894585 | 22.78° C | 50% | 1006.5 hPa | 0 mm | - | 0 W/m² | - |
| 1787894283 | 22.78° C | 50% | 1006.5 hPa | 0 mm | - | 0 W/m² | - |
| 1787893981 | 23.33° C | 50% | 1006.5 hPa | 0 mm | - | 0 W/m² | - |
| 1787893677 | 23.33° C | 50% | 1006.2 hPa | 0 mm | - | 0 W/m² | - |
| 1787893377 | 23.33° C | 49% | 1005.5 hPa | 0 mm | - | 0 W/m² | - |
| 1787893073 | 23.33° C | 50% | 1005.5 hPa | 0 mm | - | 0 W/m² | - |
| 1787892770 | 22.78° C | 50% | 1005.5 hPa | 0 mm | - | 0 W/m² | - |
| 1787892465 | 25° C | 47% | 1006.3 hPa | 0 mm | - | 0 W/m² | - |
| 1787892161 | 25° C | 40% | 1006.8 hPa | 0 mm | - | 0 W/m² | - |
| 1787891856 | 25.56° C | 40% | 1006.8 hPa | 0 mm | - | 0 W/m² | - |
| 1787891552 | 25.56° C | 40% | 1006.5 hPa | 0 mm | - | 0 W/m² | - |
| 1787891251 | 25.56° C | 39% | 1006.6 hPa | 0 mm | - | 0 W/m² | - |
| 1787890950 | 25.56° C | 39% | 1007 hPa | 0 mm | - | 0 W/m² | - |
| 1787890645 | 25° C | 42% | 1007.1 hPa | 0 mm | - | 0 W/m² | - |
| 1787890340 | 25.56° C | 40% | 1006.6 hPa | 0 mm | - | 0 W/m² | - |
| 1787890035 | 25.56° C | 40% | 1006.3 hPa | 0 mm | - | 0 W/m² | - |
| 1787889730 | 25° C | 39% | 1006.5 hPa | 0 mm | - | 0 W/m² | - |
| 1787889425 | 25° C | 42% | 1006.5 hPa | 0 mm | - | 0 W/m² | - |
| 1787889124 | 25° C | 43% | 1006.9 hPa | 0 mm | - | 0 W/m² | - |
* Rain latest hour (hover to see other rain measurements)
** Current wind speed in m/s (hover to see current wind gust speed)